<?xml version="1.0" encoding="UTF-8" standalone="no" ?>
<gpx xmlns="http://www.topografix.com/GPX/1/1" xmlns:xsi="http://www.w3.org/2001/XMLSchema-instance" xsi:schemaLocation="http://www.topografix.com/GPX/1/1 http://www.topografix.com/GPX/1/1/gpx.xsd" version="1.1" creator="VisuGPX - https://www.visugpx.com">
  <metadata>
    <name>planches des filles - ballon d'alsace</name>
  </metadata>
  <trk>
    <name><![CDATA[MIKA DECEMBRE]]></name>
    <extensions>
      <line xmlns="http://www.topografix.com/GPX/gpx_style/0/2">
        <color>0000FF</color>
        <width>4</width>
      </line>
    </extensions>
    <trkseg>
      <trkpt lat="47.77535" lon="6.77911">
        <ele>997.53656005859</ele>
        <time>2021-11-04T13:51:45.000Z</time>
      </trkpt>
      <trkpt lat="47.77535" lon="6.77911">
        <ele>997.53656005859</ele>
        <time>2021-11-04T13:51:45.000Z</time>
      </trkpt>
      <trkpt lat="47.77535" lon="6.77911">
        <ele>997.54058837891</ele>
        <time>2021-11-04T13:51:45.000Z</time>
      </trkpt>
      <trkpt lat="47.77535" lon="6.77911">
        <ele>997.54620361328</ele>
        <time>2021-11-04T13:51:45.000Z</time>
      </trkpt>
      <trkpt lat="47.77496" lon="6.78002">
        <ele>1004.8377685547</ele>
        <time>2021-11-04T13:51:45.024Z</time>
      </trkpt>
      <trkpt lat="47.77129" lon="6.77855">
        <ele>1043.8681640625</ele>
        <time>2021-11-04T13:51:45.175Z</time>
      </trkpt>
      <trkpt lat="47.77047" lon="6.77784">
        <ele>1046.9014892578</ele>
        <time>2021-11-04T13:51:45.358Z</time>
      </trkpt>
      <trkpt lat="47.76982" lon="6.77685">
        <ele>1049.8</ele>
      </trkpt>
      <trkpt lat="47.76926" lon="6.77628">
        <ele>1051.1</ele>
      </trkpt>
      <trkpt lat="47.76831" lon="6.77626">
        <ele>1050.8</ele>
        <time>2021-11-04T13:51:45.626Z</time>
      </trkpt>
      <trkpt lat="47.76764" lon="6.77662">
        <ele>1058.9</ele>
      </trkpt>
      <trkpt lat="47.76729" lon="6.77681">
        <ele>1067.6</ele>
        <time>2021-11-04T13:51:45.957Z</time>
      </trkpt>
      <trkpt lat="47.76707" lon="6.77717">
        <ele>1072.8</ele>
        <time>2021-11-04T13:51:46.332Z</time>
      </trkpt>
      <trkpt lat="47.76692" lon="6.77752">
        <ele>1073.8</ele>
        <time>2021-11-04T13:51:46.734Z</time>
      </trkpt>
      <trkpt lat="47.76669" lon="6.77824">
        <ele>1083.9</ele>
      </trkpt>
      <trkpt lat="47.7665" lon="6.77855">
        <ele>1085.1</ele>
      </trkpt>
      <trkpt lat="47.76653" lon="6.77878">
        <ele>1082.8</ele>
      </trkpt>
      <trkpt lat="47.76667" lon="6.7789">
        <ele>1081.2</ele>
        <time>2021-11-04T13:51:47.271Z</time>
      </trkpt>
      <trkpt lat="47.76616" lon="6.77971">
        <ele>1070.6</ele>
      </trkpt>
      <trkpt lat="47.76534" lon="6.78106">
        <ele>1046.1473388672</ele>
        <time>2021-11-04T13:51:47.867Z</time>
      </trkpt>
      <trkpt lat="47.76443" lon="6.7821">
        <ele>1023.2</ele>
      </trkpt>
      <trkpt lat="47.76354" lon="6.78259">
        <ele>1006.2807617188</ele>
        <time>2021-11-04T13:51:48.532Z</time>
      </trkpt>
      <trkpt lat="47.76235" lon="6.78445">
        <ele>982.39544677734</ele>
        <time>2021-11-04T13:51:49.255Z</time>
      </trkpt>
      <trkpt lat="47.75987" lon="6.78617">
        <ele>907.01837158203</ele>
        <time>2021-11-04T13:51:50.069Z</time>
      </trkpt>
      <trkpt lat="47.75958" lon="6.78701">
        <ele>894.24432373047</ele>
        <time>2021-11-04T13:51:50.905Z</time>
      </trkpt>
      <trkpt lat="47.75731" lon="6.78754">
        <ele>847.11749267578</ele>
        <time>2021-11-04T13:51:51.817Z</time>
      </trkpt>
      <trkpt lat="47.75664" lon="6.7886">
        <ele>845.76281738281</ele>
        <time>2021-11-04T13:51:52.762Z</time>
      </trkpt>
      <trkpt lat="47.75526" lon="6.7802">
        <ele>784.03625488281</ele>
        <time>2021-11-04T13:51:53.901Z</time>
      </trkpt>
      <trkpt lat="47.75421" lon="6.77903">
        <ele>777.34149169922</ele>
        <time>2021-11-04T13:51:55.084Z</time>
      </trkpt>
      <trkpt lat="47.74799" lon="6.77693">
        <ele>731.25970458984</ele>
        <time>2021-11-04T13:51:56.480Z</time>
      </trkpt>
      <trkpt lat="47.74689" lon="6.77724">
        <ele>727.06408691406</ele>
        <time>2021-11-04T13:51:57.913Z</time>
      </trkpt>
      <trkpt lat="47.74689" lon="6.77724">
        <ele>727.06256103516</ele>
        <time>2021-11-04T13:51:59.346Z</time>
      </trkpt>
      <trkpt lat="47.7461" lon="6.77825">
        <ele>724.11303710938</ele>
        <time>2021-11-04T13:52:00.814Z</time>
      </trkpt>
      <trkpt lat="47.74564" lon="6.77983">
        <ele>724.96746826172</ele>
        <time>2021-11-04T13:52:02.321Z</time>
      </trkpt>
      <trkpt lat="47.74572" lon="6.78303">
        <ele>724.97375488281</ele>
        <time>2021-11-04T13:52:03.900Z</time>
      </trkpt>
      <trkpt lat="47.74523" lon="6.78607">
        <ele>709.84094238281</ele>
        <time>2021-11-04T13:52:05.549Z</time>
      </trkpt>
      <trkpt lat="47.74533" lon="6.78783">
        <ele>714.11334228516</ele>
        <time>2021-11-04T13:52:07.238Z</time>
      </trkpt>
      <trkpt lat="47.74607" lon="6.78932">
        <ele>725.87768554688</ele>
        <time>2021-11-04T13:52:08.969Z</time>
      </trkpt>
      <trkpt lat="47.74643" lon="6.79389">
        <ele>703.39929199219</ele>
        <time>2021-11-04T13:52:10.803Z</time>
      </trkpt>
      <trkpt lat="47.74721" lon="6.79632">
        <ele>692.6328125</ele>
        <time>2021-11-04T13:52:12.698Z</time>
      </trkpt>
      <trkpt lat="47.74711" lon="6.79873">
        <ele>669.6</ele>
      </trkpt>
      <trkpt lat="47.74717" lon="6.80066">
        <ele>667.5</ele>
        <time>2021-11-04T13:52:14.712Z</time>
      </trkpt>
      <trkpt lat="47.74705" lon="6.80162">
        <ele>665.6</ele>
      </trkpt>
      <trkpt lat="47.74714" lon="6.80221">
        <ele>663.8</ele>
      </trkpt>
      <trkpt lat="47.7475" lon="6.80296">
        <ele>660.6</ele>
      </trkpt>
      <trkpt lat="47.74763" lon="6.8032">
        <ele>659.2</ele>
      </trkpt>
      <trkpt lat="47.7476" lon="6.80368">
        <ele>657.6</ele>
      </trkpt>
      <trkpt lat="47.74784" lon="6.80498">
        <ele>666.56359863281</ele>
        <time>2021-11-04T13:52:16.806Z</time>
      </trkpt>
      <trkpt lat="47.74779" lon="6.80659">
        <ele>647.6</ele>
      </trkpt>
      <trkpt lat="47.74757" lon="6.8087">
        <ele>639.1</ele>
      </trkpt>
      <trkpt lat="47.74768" lon="6.80922">
        <ele>636.9</ele>
      </trkpt>
      <trkpt lat="47.74739" lon="6.8105">
        <ele>634.7</ele>
      </trkpt>
      <trkpt lat="47.74714" lon="6.81126">
        <ele>632.9</ele>
      </trkpt>
      <trkpt lat="47.74683" lon="6.81158">
        <ele>629.3</ele>
      </trkpt>
      <trkpt lat="47.74676" lon="6.81225">
        <ele>621.8</ele>
      </trkpt>
      <trkpt lat="47.74689" lon="6.81289">
        <ele>616.3</ele>
      </trkpt>
      <trkpt lat="47.74707" lon="6.81304">
        <ele>613.4</ele>
      </trkpt>
      <trkpt lat="47.7472" lon="6.81309">
        <ele>611.1</ele>
      </trkpt>
      <trkpt lat="47.74716" lon="6.81425">
        <ele>603.9</ele>
        <time>2021-11-04T13:52:19.113Z</time>
      </trkpt>
      <trkpt lat="47.74743" lon="6.81419">
        <ele>598.8</ele>
      </trkpt>
      <trkpt lat="47.74778" lon="6.81388">
        <ele>591.1</ele>
      </trkpt>
      <trkpt lat="47.74807" lon="6.81367">
        <ele>584.2</ele>
      </trkpt>
      <trkpt lat="47.74841" lon="6.81337">
        <ele>577</ele>
        <time>2021-11-04T13:52:21.468Z</time>
      </trkpt>
      <trkpt lat="47.74854" lon="6.81325">
        <ele>575.3</ele>
      </trkpt>
      <trkpt lat="47.74868" lon="6.81323">
        <ele>572.8</ele>
      </trkpt>
      <trkpt lat="47.74882" lon="6.81335">
        <ele>568.3</ele>
      </trkpt>
      <trkpt lat="47.74892" lon="6.8134">
        <ele>565.5</ele>
      </trkpt>
      <trkpt lat="47.74901" lon="6.81343">
        <ele>563</ele>
      </trkpt>
      <trkpt lat="47.74913" lon="6.81352">
        <ele>559.4</ele>
      </trkpt>
      <trkpt lat="47.74923" lon="6.81358">
        <ele>556.6</ele>
      </trkpt>
      <trkpt lat="47.74929" lon="6.81362">
        <ele>554.8</ele>
      </trkpt>
      <trkpt lat="47.7493" lon="6.81376">
        <ele>552.4</ele>
      </trkpt>
      <trkpt lat="47.74929" lon="6.81384">
        <ele>551.8</ele>
      </trkpt>
      <trkpt lat="47.74933" lon="6.81399">
        <ele>548</ele>
      </trkpt>
      <trkpt lat="47.74941" lon="6.81399">
        <ele>545.4</ele>
      </trkpt>
      <trkpt lat="47.74946" lon="6.81389">
        <ele>545.8</ele>
      </trkpt>
      <trkpt lat="47.74955" lon="6.81373">
        <ele>547</ele>
      </trkpt>
      <trkpt lat="47.7494" lon="6.81445">
        <ele>538.4</ele>
      </trkpt>
      <trkpt lat="47.74934" lon="6.81495">
        <ele>534.3</ele>
      </trkpt>
      <trkpt lat="47.74914" lon="6.81591">
        <ele>523.8</ele>
      </trkpt>
      <trkpt lat="47.74895" lon="6.81686">
        <ele>513.4</ele>
        <time>2021-11-04T13:52:23.861Z</time>
      </trkpt>
      <trkpt lat="47.74885" lon="6.81758">
        <ele>506.2</ele>
      </trkpt>
      <trkpt lat="47.74887" lon="6.81794">
        <ele>502.1</ele>
      </trkpt>
      <trkpt lat="47.74881" lon="6.81822">
        <ele>500.3</ele>
      </trkpt>
      <trkpt lat="47.74897" lon="6.81857">
        <ele>498.2</ele>
      </trkpt>
      <trkpt lat="47.74912" lon="6.81895">
        <ele>498</ele>
      </trkpt>
      <trkpt lat="47.7492" lon="6.81923">
        <ele>498</ele>
      </trkpt>
      <trkpt lat="47.74903" lon="6.81963">
        <ele>497.2</ele>
        <time>2021-11-04T13:52:26.321Z</time>
      </trkpt>
      <trkpt lat="47.74909" lon="6.81987">
        <ele>497</ele>
      </trkpt>
      <trkpt lat="47.74914" lon="6.81986">
        <ele>497</ele>
      </trkpt>
      <trkpt lat="47.74923" lon="6.82022">
        <ele>495.8</ele>
      </trkpt>
      <trkpt lat="47.74929" lon="6.82045">
        <ele>493.8</ele>
      </trkpt>
      <trkpt lat="47.74941" lon="6.82075">
        <ele>492</ele>
      </trkpt>
      <trkpt lat="47.74948" lon="6.82098">
        <ele>490.5</ele>
      </trkpt>
      <trkpt lat="47.74948" lon="6.8214">
        <ele>491.2</ele>
      </trkpt>
      <trkpt lat="47.74946" lon="6.82167">
        <ele>492</ele>
      </trkpt>
      <trkpt lat="47.74976" lon="6.82312">
        <ele>499.02267456055</ele>
        <time>2021-11-04T13:52:28.863Z</time>
      </trkpt>
      <trkpt lat="47.75001" lon="6.82343">
        <ele>502.3</ele>
      </trkpt>
      <trkpt lat="47.75034" lon="6.8235">
        <ele>511.1</ele>
        <time>2021-11-04T13:52:31.428Z</time>
      </trkpt>
      <trkpt lat="47.7504" lon="6.82367">
        <ele>515.4</ele>
      </trkpt>
      <trkpt lat="47.7504" lon="6.82423">
        <ele>521.8</ele>
      </trkpt>
      <trkpt lat="47.75037" lon="6.82467">
        <ele>524.9</ele>
        <time>2021-11-04T13:52:34.018Z</time>
      </trkpt>
      <trkpt lat="47.75049" lon="6.82453">
        <ele>530.1</ele>
      </trkpt>
      <trkpt lat="47.75069" lon="6.824">
        <ele>533.5</ele>
      </trkpt>
      <trkpt lat="47.75092" lon="6.82352">
        <ele>535.94464111328</ele>
        <time>2021-11-04T13:52:36.643Z</time>
      </trkpt>
      <trkpt lat="47.75145" lon="6.82337">
        <ele>553</ele>
      </trkpt>
      <trkpt lat="47.75197" lon="6.82349">
        <ele>571.3</ele>
        <time>2021-11-04T13:52:39.305Z</time>
      </trkpt>
      <trkpt lat="47.75143" lon="6.82425">
        <ele>570.4</ele>
      </trkpt>
      <trkpt lat="47.75067" lon="6.82654">
        <ele>563.54034423828</ele>
        <time>2021-11-04T13:52:42.049Z</time>
      </trkpt>
      <trkpt lat="47.75014" lon="6.82686">
        <ele>557.62365722656</ele>
        <time>2021-11-04T13:52:44.812Z</time>
      </trkpt>
      <trkpt lat="47.74977" lon="6.82747">
        <ele>555.9</ele>
      </trkpt>
      <trkpt lat="47.75046" lon="6.82739">
        <ele>572.3</ele>
      </trkpt>
      <trkpt lat="47.75076" lon="6.82747">
        <ele>580</ele>
      </trkpt>
      <trkpt lat="47.75114" lon="6.82795">
        <ele>594.1</ele>
      </trkpt>
      <trkpt lat="47.75135" lon="6.82843">
        <ele>605.7</ele>
      </trkpt>
      <trkpt lat="47.75146" lon="6.8286">
        <ele>610.3</ele>
        <time>2021-11-04T13:52:47.639Z</time>
      </trkpt>
      <trkpt lat="47.75154" lon="6.82872">
        <ele>615.9453125</ele>
        <time>2021-11-04T13:52:50.478Z</time>
      </trkpt>
      <trkpt lat="47.75184" lon="6.82918">
        <ele>627</ele>
      </trkpt>
      <trkpt lat="47.75199" lon="6.82953">
        <ele>636</ele>
      </trkpt>
      <trkpt lat="47.75209" lon="6.82957">
        <ele>639.1</ele>
      </trkpt>
      <trkpt lat="47.75216" lon="6.82962">
        <ele>641.2</ele>
      </trkpt>
      <trkpt lat="47.75228" lon="6.82971">
        <ele>645.2</ele>
      </trkpt>
      <trkpt lat="47.75239" lon="6.82982">
        <ele>648.8</ele>
      </trkpt>
      <trkpt lat="47.75259" lon="6.83006">
        <ele>654.8</ele>
      </trkpt>
      <trkpt lat="47.75269" lon="6.83024">
        <ele>658.3</ele>
      </trkpt>
      <trkpt lat="47.75282" lon="6.83049">
        <ele>663.6</ele>
      </trkpt>
      <trkpt lat="47.75289" lon="6.83074">
        <ele>665.4</ele>
      </trkpt>
      <trkpt lat="47.75296" lon="6.83076">
        <ele>666.9</ele>
      </trkpt>
      <trkpt lat="47.75312" lon="6.83096">
        <ele>669.9</ele>
      </trkpt>
      <trkpt lat="47.75319" lon="6.83093">
        <ele>671.6</ele>
      </trkpt>
      <trkpt lat="47.7532" lon="6.83077">
        <ele>672.3</ele>
      </trkpt>
      <trkpt lat="47.75319" lon="6.83049">
        <ele>672.5</ele>
      </trkpt>
      <trkpt lat="47.75402" lon="6.83193">
        <ele>688.5</ele>
      </trkpt>
      <trkpt lat="47.75449" lon="6.83262">
        <ele>695.7</ele>
      </trkpt>
      <trkpt lat="47.75516" lon="6.83325">
        <ele>701.4</ele>
        <time>2021-11-04T13:52:53.473Z</time>
      </trkpt>
      <trkpt lat="47.75515" lon="6.833">
        <ele>704.4</ele>
      </trkpt>
      <trkpt lat="47.75491" lon="6.8327">
        <ele>705.5</ele>
      </trkpt>
      <trkpt lat="47.75481" lon="6.8324">
        <ele>708.9</ele>
      </trkpt>
      <trkpt lat="47.75478" lon="6.83207">
        <ele>716.85949707031</ele>
        <time>2021-11-04T13:52:56.494Z</time>
      </trkpt>
      <trkpt lat="47.75479" lon="6.83107">
        <ele>721.8</ele>
      </trkpt>
      <trkpt lat="47.75486" lon="6.83061">
        <ele>725.7</ele>
      </trkpt>
      <trkpt lat="47.75503" lon="6.83022">
        <ele>729.43316650391</ele>
        <time>2021-11-04T13:52:59.558Z</time>
      </trkpt>
      <trkpt lat="47.75503" lon="6.83022">
        <ele>729.44439697266</ele>
        <time>2021-11-04T13:53:02.622Z</time>
      </trkpt>
      <trkpt lat="47.75503" lon="6.83022">
        <ele>729.44555664062</ele>
        <time>2021-11-04T13:53:05.686Z</time>
      </trkpt>
      <trkpt lat="47.7552" lon="6.82995">
        <ele>732.4</ele>
      </trkpt>
      <trkpt lat="47.75545" lon="6.82977">
        <ele>735.6</ele>
      </trkpt>
      <trkpt lat="47.75569" lon="6.82973">
        <ele>738.5</ele>
      </trkpt>
      <trkpt lat="47.75593" lon="6.82976">
        <ele>740.7</ele>
        <time>2021-11-04T13:53:08.785Z</time>
      </trkpt>
      <trkpt lat="47.75575" lon="6.83017">
        <ele>742.8</ele>
      </trkpt>
      <trkpt lat="47.75565" lon="6.83043">
        <ele>743.3</ele>
      </trkpt>
      <trkpt lat="47.75575" lon="6.83152">
        <ele>745.1</ele>
        <time>2021-11-04T13:53:11.909Z</time>
      </trkpt>
      <trkpt lat="47.7561" lon="6.83277">
        <ele>744.4</ele>
      </trkpt>
      <trkpt lat="47.75634" lon="6.83398">
        <ele>753.37463378906</ele>
        <time>2021-11-04T13:53:15.110Z</time>
      </trkpt>
      <trkpt lat="47.75676" lon="6.83381">
        <ele>755.3</ele>
      </trkpt>
      <trkpt lat="47.75702" lon="6.83373">
        <ele>762.9</ele>
      </trkpt>
      <trkpt lat="47.75732" lon="6.83342">
        <ele>770.9</ele>
      </trkpt>
      <trkpt lat="47.75766" lon="6.83324">
        <ele>774.7</ele>
        <time>2021-11-04T13:53:18.361Z</time>
      </trkpt>
      <trkpt lat="47.75775" lon="6.8334">
        <ele>773.6</ele>
      </trkpt>
      <trkpt lat="47.75782" lon="6.83371">
        <ele>770.5</ele>
      </trkpt>
      <trkpt lat="47.75771" lon="6.83387">
        <ele>770.4</ele>
      </trkpt>
      <trkpt lat="47.75767" lon="6.83434">
        <ele>768</ele>
      </trkpt>
      <trkpt lat="47.75772" lon="6.835">
        <ele>765.8</ele>
      </trkpt>
      <trkpt lat="47.75777" lon="6.83566">
        <ele>765.5</ele>
      </trkpt>
      <trkpt lat="47.75795" lon="6.83594">
        <ele>763.2</ele>
      </trkpt>
      <trkpt lat="47.75817" lon="6.83611">
        <ele>759.4</ele>
      </trkpt>
      <trkpt lat="47.75829" lon="6.83611">
        <ele>757.7</ele>
      </trkpt>
      <trkpt lat="47.75898" lon="6.8364">
        <ele>741.1</ele>
      </trkpt>
      <trkpt lat="47.7591" lon="6.83652">
        <ele>737.9</ele>
      </trkpt>
      <trkpt lat="47.7596" lon="6.8367">
        <ele>727.2</ele>
      </trkpt>
      <trkpt lat="47.75961" lon="6.83678">
        <ele>726.8</ele>
      </trkpt>
      <trkpt lat="47.75994" lon="6.83689">
        <ele>721.3</ele>
      </trkpt>
      <trkpt lat="47.76012" lon="6.83703">
        <ele>720.2</ele>
      </trkpt>
      <trkpt lat="47.76021" lon="6.8366">
        <ele>719.3</ele>
        <time>2021-11-04T13:53:21.719Z</time>
      </trkpt>
      <trkpt lat="47.76142" lon="6.83679">
        <ele>725.2</ele>
      </trkpt>
      <trkpt lat="47.76423" lon="6.83582">
        <ele>743.28430175781</ele>
        <time>2021-11-04T13:53:25.214Z</time>
      </trkpt>
      <trkpt lat="47.76676" lon="6.8386">
        <ele>769.00933837891</ele>
        <time>2021-11-04T13:53:28.814Z</time>
      </trkpt>
      <trkpt lat="47.7688" lon="6.83753">
        <ele>786.67535400391</ele>
        <time>2021-11-04T13:53:32.486Z</time>
      </trkpt>
      <trkpt lat="47.77023" lon="6.83981">
        <ele>835.06848144531</ele>
        <time>2021-11-04T13:53:36.228Z</time>
      </trkpt>
      <trkpt lat="47.77111" lon="6.842">
        <ele>868.8</ele>
      </trkpt>
      <trkpt lat="47.77167" lon="6.84417">
        <ele>890.75225830078</ele>
        <time>2021-11-04T13:53:40.079Z</time>
      </trkpt>
      <trkpt lat="47.77279" lon="6.84532">
        <ele>905.87615966797</ele>
        <time>2021-11-04T13:53:43.975Z</time>
      </trkpt>
      <trkpt lat="47.77342" lon="6.8464">
        <ele>893.2</ele>
      </trkpt>
      <trkpt lat="47.77377" lon="6.84758">
        <ele>912.525390625</ele>
        <time>2021-11-04T13:53:47.932Z</time>
      </trkpt>
      <trkpt lat="47.77443" lon="6.85107">
        <ele>895.5</ele>
      </trkpt>
      <trkpt lat="47.77456" lon="6.85198">
        <ele>895.6</ele>
      </trkpt>
      <trkpt lat="47.77446" lon="6.85271">
        <ele>902.4</ele>
      </trkpt>
      <trkpt lat="47.77438" lon="6.85312">
        <ele>906.6</ele>
      </trkpt>
      <trkpt lat="47.77437" lon="6.85359">
        <ele>910.2</ele>
      </trkpt>
      <trkpt lat="47.77454" lon="6.85444">
        <ele>934.15209960938</ele>
        <time>2021-11-04T13:53:52.045Z</time>
      </trkpt>
      <trkpt lat="47.77481" lon="6.85509">
        <ele>921.9</ele>
      </trkpt>
      <trkpt lat="47.77511" lon="6.85651">
        <ele>936</ele>
        <time>2021-11-04T13:53:56.210Z</time>
      </trkpt>
      <trkpt lat="47.77573" lon="6.85713">
        <ele>946.4</ele>
      </trkpt>
      <trkpt lat="47.7763" lon="6.85781">
        <ele>956.1</ele>
      </trkpt>
      <trkpt lat="47.7773" lon="6.8582">
        <ele>952.8</ele>
      </trkpt>
      <trkpt lat="47.77815" lon="6.859">
        <ele>950.71008300781</ele>
        <time>2021-11-04T13:54:00.489Z</time>
      </trkpt>
      <trkpt lat="47.77888" lon="6.86008">
        <ele>918.3</ele>
        <time>2021-11-04T13:54:04.801Z</time>
      </trkpt>
      <trkpt lat="47.77944" lon="6.86053">
        <ele>908</ele>
      </trkpt>
      <trkpt lat="47.77958" lon="6.86054">
        <ele>910.2</ele>
      </trkpt>
      <trkpt lat="47.77998" lon="6.86075">
        <ele>919.3</ele>
      </trkpt>
      <trkpt lat="47.78011" lon="6.86072">
        <ele>921.9</ele>
      </trkpt>
      <trkpt lat="47.78045" lon="6.86101">
        <ele>934.4</ele>
      </trkpt>
      <trkpt lat="47.781" lon="6.86137">
        <ele>953.1</ele>
      </trkpt>
      <trkpt lat="47.78152" lon="6.86156">
        <ele>968.8</ele>
        <time>2021-11-04T13:54:09.211Z</time>
      </trkpt>
      <trkpt lat="47.78183" lon="6.86159">
        <ele>976.7</ele>
      </trkpt>
      <trkpt lat="47.78213" lon="6.8615">
        <ele>984.1</ele>
        <time>2021-11-04T13:54:13.642Z</time>
      </trkpt>
      <trkpt lat="47.7827" lon="6.86031">
        <ele>994.8</ele>
      </trkpt>
      <trkpt lat="47.78367" lon="6.85927">
        <ele>1018.2</ele>
      </trkpt>
      <trkpt lat="47.78417" lon="6.85874">
        <ele>1028.8</ele>
      </trkpt>
      <trkpt lat="47.78446" lon="6.85844">
        <ele>1035.6</ele>
      </trkpt>
      <trkpt lat="47.78481" lon="6.85832">
        <ele>1040.1</ele>
        <time>2021-11-04T13:54:18.184Z</time>
      </trkpt>
      <trkpt lat="47.78486" lon="6.85862">
        <ele>1042.2</ele>
      </trkpt>
      <trkpt lat="47.78536" lon="6.85966">
        <ele>1050.1</ele>
      </trkpt>
      <trkpt lat="47.78579" lon="6.86024">
        <ele>1055.9</ele>
      </trkpt>
      <trkpt lat="47.78621" lon="6.86064">
        <ele>1053.8869628906</ele>
        <time>2021-11-04T13:54:22.797Z</time>
      </trkpt>
      <trkpt lat="47.78807" lon="6.86171">
        <ele>1072.9111328125</ele>
        <time>2021-11-04T13:54:27.477Z</time>
      </trkpt>
      <trkpt lat="47.78807" lon="6.86171">
        <ele>1072.9127197266</ele>
        <time>2021-11-04T13:54:32.157Z</time>
      </trkpt>
      <trkpt lat="47.78807" lon="6.86171">
        <ele>1072.9222412109</ele>
        <time>2021-11-04T13:54:36.837Z</time>
      </trkpt>
      <trkpt lat="47.7887" lon="6.86157">
        <ele>1081.5</ele>
      </trkpt>
      <trkpt lat="47.78907" lon="6.86158">
        <ele>1084.8</ele>
      </trkpt>
      <trkpt lat="47.79025" lon="6.86208">
        <ele>1097.2</ele>
      </trkpt>
      <trkpt lat="47.79091" lon="6.8622">
        <ele>1102.2</ele>
      </trkpt>
      <trkpt lat="47.7915" lon="6.86189">
        <ele>1102.4282226562</ele>
        <time>2021-11-04T13:54:41.631Z</time>
      </trkpt>
      <trkpt lat="47.79268" lon="6.86081">
        <ele>1111.1</ele>
      </trkpt>
      <trkpt lat="47.7933" lon="6.86041">
        <ele>1107.8</ele>
      </trkpt>
      <trkpt lat="47.79393" lon="6.86002">
        <ele>1090.2917480469</ele>
        <time>2021-11-04T13:54:46.517Z</time>
      </trkpt>
      <trkpt lat="47.80105" lon="6.84925">
        <ele>1059.9927978516</ele>
        <time>2021-11-04T13:54:51.742Z</time>
      </trkpt>
      <trkpt lat="47.80259" lon="6.84877">
        <ele>1065.3</ele>
      </trkpt>
      <trkpt lat="47.80424" lon="6.84825">
        <ele>1099.2313232422</ele>
        <time>2021-11-04T13:54:57.076Z</time>
      </trkpt>
      <trkpt lat="47.80679" lon="6.85055">
        <ele>1131.2176513672</ele>
        <time>2021-11-04T13:55:02.509Z</time>
      </trkpt>
      <trkpt lat="47.80658" lon="6.85226">
        <ele>1116.4</ele>
        <time>2021-11-04T13:55:07.978Z</time>
      </trkpt>
      <trkpt lat="47.80691" lon="6.85224">
        <ele>1115.9</ele>
      </trkpt>
      <trkpt lat="47.80722" lon="6.85194">
        <ele>1114.1</ele>
        <time>2021-11-04T13:55:13.466Z</time>
      </trkpt>
      <trkpt lat="47.80704" lon="6.85274">
        <ele>1107.1</ele>
      </trkpt>
      <trkpt lat="47.80707" lon="6.85429">
        <ele>1090.2056884766</ele>
        <time>2021-11-04T13:55:19.006Z</time>
      </trkpt>
      <trkpt lat="47.8077" lon="6.85438">
        <ele>1064.9801025391</ele>
        <time>2021-11-04T13:55:24.567Z</time>
      </trkpt>
      <trkpt lat="47.80814" lon="6.85545">
        <ele>1028.5274658203</ele>
        <time>2021-11-04T13:55:30.156Z</time>
      </trkpt>
      <trkpt lat="47.80844" lon="6.85495">
        <ele>1022.0803833008</ele>
        <time>2021-11-04T13:55:35.760Z</time>
      </trkpt>
      <trkpt lat="47.80847" lon="6.85576">
        <ele>1008.4162597656</ele>
        <time>2021-11-04T13:55:41.382Z</time>
      </trkpt>
      <trkpt lat="47.80911" lon="6.85486">
        <ele>992.21954345703</ele>
        <time>2021-11-04T13:55:47.034Z</time>
      </trkpt>
      <trkpt lat="47.80938" lon="6.85597">
        <ele>970.11938476562</ele>
        <time>2021-11-04T13:55:52.712Z</time>
      </trkpt>
      <trkpt lat="47.81036" lon="6.85587">
        <ele>928.7</ele>
      </trkpt>
      <trkpt lat="47.81063" lon="6.85569">
        <ele>919.3</ele>
      </trkpt>
      <trkpt lat="47.81089" lon="6.85547">
        <ele>912.16851806641</ele>
        <time>2021-11-04T13:55:58.442Z</time>
      </trkpt>
      <trkpt lat="47.81098" lon="6.85444">
        <ele>893.1</ele>
      </trkpt>
      <trkpt lat="47.81104" lon="6.85421">
        <ele>889.4</ele>
      </trkpt>
      <trkpt lat="47.81107" lon="6.85391">
        <ele>886.3</ele>
      </trkpt>
      <trkpt lat="47.81092" lon="6.85332">
        <ele>882.3</ele>
        <time>2021-11-04T13:56:04.225Z</time>
      </trkpt>
      <trkpt lat="47.81102" lon="6.85318">
        <ele>877.8</ele>
      </trkpt>
      <trkpt lat="47.81123" lon="6.85329">
        <ele>870.1</ele>
      </trkpt>
      <trkpt lat="47.81136" lon="6.85331">
        <ele>865.3</ele>
      </trkpt>
      <trkpt lat="47.81147" lon="6.85344">
        <ele>861.9</ele>
      </trkpt>
      <trkpt lat="47.81175" lon="6.85368">
        <ele>850</ele>
      </trkpt>
      <trkpt lat="47.81184" lon="6.85386">
        <ele>845.2</ele>
      </trkpt>
      <trkpt lat="47.81201" lon="6.85402">
        <ele>836.9</ele>
      </trkpt>
      <trkpt lat="47.81213" lon="6.85416">
        <ele>831</ele>
      </trkpt>
      <trkpt lat="47.81219" lon="6.85426">
        <ele>827.6</ele>
      </trkpt>
      <trkpt lat="47.8123" lon="6.85411">
        <ele>821.9</ele>
      </trkpt>
      <trkpt lat="47.81241" lon="6.85389">
        <ele>817.4</ele>
        <time>2021-11-04T13:56:10.062Z</time>
      </trkpt>
      <trkpt lat="47.81269" lon="6.85358">
        <ele>812.3</ele>
      </trkpt>
      <trkpt lat="47.81277" lon="6.85327">
        <ele>813.5</ele>
      </trkpt>
      <trkpt lat="47.81287" lon="6.85309">
        <ele>812</ele>
      </trkpt>
      <trkpt lat="47.8133" lon="6.85252">
        <ele>814.9</ele>
      </trkpt>
      <trkpt lat="47.81343" lon="6.85199">
        <ele>821.4</ele>
      </trkpt>
      <trkpt lat="47.81395" lon="6.85175">
        <ele>820.3</ele>
      </trkpt>
      <trkpt lat="47.81457" lon="6.85104">
        <ele>824.4</ele>
      </trkpt>
      <trkpt lat="47.81489" lon="6.85071">
        <ele>828.8</ele>
      </trkpt>
      <trkpt lat="47.81512" lon="6.85039">
        <ele>838.9</ele>
      </trkpt>
      <trkpt lat="47.81527" lon="6.85039">
        <ele>840.5</ele>
      </trkpt>
      <trkpt lat="47.81536" lon="6.85044">
        <ele>836.8</ele>
      </trkpt>
      <trkpt lat="47.81559" lon="6.84983">
        <ele>840.6</ele>
      </trkpt>
      <trkpt lat="47.81582" lon="6.84935">
        <ele>839.3</ele>
      </trkpt>
      <trkpt lat="47.81592" lon="6.84933">
        <ele>840</ele>
      </trkpt>
      <trkpt lat="47.81601" lon="6.84937">
        <ele>840.7</ele>
        <time>2021-11-04T13:56:16.056Z</time>
      </trkpt>
      <trkpt lat="47.81619" lon="6.8498">
        <ele>840.7</ele>
      </trkpt>
      <trkpt lat="47.81624" lon="6.85023">
        <ele>843</ele>
      </trkpt>
      <trkpt lat="47.81619" lon="6.8505">
        <ele>838.5</ele>
      </trkpt>
      <trkpt lat="47.8164" lon="6.85076">
        <ele>845.1</ele>
      </trkpt>
      <trkpt lat="47.81655" lon="6.85096">
        <ele>844</ele>
      </trkpt>
      <trkpt lat="47.81668" lon="6.85107">
        <ele>842.7</ele>
      </trkpt>
      <trkpt lat="47.81689" lon="6.85142">
        <ele>834.5</ele>
      </trkpt>
      <trkpt lat="47.8172" lon="6.85176">
        <ele>834.9</ele>
      </trkpt>
      <trkpt lat="47.81735" lon="6.85192">
        <ele>834.3</ele>
      </trkpt>
      <trkpt lat="47.8175" lon="6.85199">
        <ele>837.17297363281</ele>
        <time>2021-11-04T13:56:22.132Z</time>
      </trkpt>
      <trkpt lat="47.8177" lon="6.85177">
        <ele>838.2</ele>
      </trkpt>
      <trkpt lat="47.81778" lon="6.85173">
        <ele>836.4</ele>
      </trkpt>
      <trkpt lat="47.81792" lon="6.85166">
        <ele>835.1</ele>
      </trkpt>
      <trkpt lat="47.81803" lon="6.85139">
        <ele>832.2</ele>
      </trkpt>
      <trkpt lat="47.81807" lon="6.85113">
        <ele>832</ele>
      </trkpt>
      <trkpt lat="47.81806" lon="6.85086">
        <ele>834.7</ele>
      </trkpt>
      <trkpt lat="47.81815" lon="6.85062">
        <ele>836.8</ele>
      </trkpt>
      <trkpt lat="47.8183" lon="6.85056">
        <ele>836.3</ele>
        <time>2021-11-04T13:56:28.250Z</time>
      </trkpt>
      <trkpt lat="47.81875" lon="6.85095">
        <ele>841.9</ele>
      </trkpt>
      <trkpt lat="47.81899" lon="6.85113">
        <ele>845.2</ele>
      </trkpt>
      <trkpt lat="47.81924" lon="6.85116">
        <ele>847.7</ele>
      </trkpt>
      <trkpt lat="47.81944" lon="6.85131">
        <ele>848.6</ele>
        <time>2021-11-04T13:56:34.412Z</time>
      </trkpt>
      <trkpt lat="47.81945" lon="6.85159">
        <ele>846.6</ele>
      </trkpt>
      <trkpt lat="47.81948" lon="6.85177">
        <ele>849.2</ele>
      </trkpt>
      <trkpt lat="47.8196" lon="6.8519">
        <ele>854.6</ele>
      </trkpt>
      <trkpt lat="47.81962" lon="6.85196">
        <ele>856.2</ele>
      </trkpt>
      <trkpt lat="47.81958" lon="6.85207">
        <ele>857.4</ele>
      </trkpt>
      <trkpt lat="47.81952" lon="6.85213">
        <ele>856.1</ele>
      </trkpt>
      <trkpt lat="47.81954" lon="6.85227">
        <ele>859.4</ele>
      </trkpt>
      <trkpt lat="47.81963" lon="6.85233">
        <ele>864.9</ele>
      </trkpt>
      <trkpt lat="47.81971" lon="6.85232">
        <ele>868</ele>
      </trkpt>
      <trkpt lat="47.81976" lon="6.85232">
        <ele>871.1</ele>
      </trkpt>
      <trkpt lat="47.81969" lon="6.85247">
        <ele>870.2</ele>
      </trkpt>
      <trkpt lat="47.81959" lon="6.85261">
        <ele>872</ele>
        <time>2021-11-04T13:56:40.605Z</time>
      </trkpt>
      <trkpt lat="47.81949" lon="6.85283">
        <ele>878.4</ele>
      </trkpt>
      <trkpt lat="47.81959" lon="6.85288">
        <ele>883.5</ele>
      </trkpt>
      <trkpt lat="47.8198" lon="6.85276">
        <ele>885.1</ele>
      </trkpt>
      <trkpt lat="47.81995" lon="6.85271">
        <ele>891.7</ele>
      </trkpt>
      <trkpt lat="47.82003" lon="6.8527">
        <ele>895.6</ele>
      </trkpt>
      <trkpt lat="47.82001" lon="6.85258">
        <ele>892.8</ele>
      </trkpt>
      <trkpt lat="47.82003" lon="6.8525">
        <ele>892.7</ele>
      </trkpt>
      <trkpt lat="47.8201" lon="6.85255">
        <ele>896.6</ele>
      </trkpt>
      <trkpt lat="47.82017" lon="6.85244">
        <ele>898.7</ele>
      </trkpt>
      <trkpt lat="47.82022" lon="6.85229">
        <ele>898.7</ele>
      </trkpt>
      <trkpt lat="47.8203" lon="6.85225">
        <ele>901.8</ele>
      </trkpt>
      <trkpt lat="47.8203" lon="6.85235">
        <ele>903.6</ele>
        <time>2021-11-04T13:56:46.820Z</time>
      </trkpt>
      <trkpt lat="47.82029" lon="6.85255">
        <ele>905.7</ele>
      </trkpt>
      <trkpt lat="47.82037" lon="6.85274">
        <ele>910.2</ele>
      </trkpt>
      <trkpt lat="47.82039" lon="6.85289">
        <ele>913</ele>
      </trkpt>
      <trkpt lat="47.82049" lon="6.85303">
        <ele>920.8</ele>
      </trkpt>
      <trkpt lat="47.82049" lon="6.85319">
        <ele>926</ele>
      </trkpt>
      <trkpt lat="47.82072" lon="6.85312">
        <ele>938.4</ele>
        <time>2021-11-04T13:56:53.056Z</time>
      </trkpt>
      <trkpt lat="47.82079" lon="6.85302">
        <ele>941.1</ele>
      </trkpt>
      <trkpt lat="47.82087" lon="6.85277">
        <ele>943.3</ele>
      </trkpt>
      <trkpt lat="47.82088" lon="6.85286">
        <ele>945.1</ele>
      </trkpt>
      <trkpt lat="47.82087" lon="6.85295">
        <ele>945.3</ele>
        <time>2021-11-04T13:56:59.306Z</time>
      </trkpt>
      <trkpt lat="47.82092" lon="6.85292">
        <ele>948.1</ele>
      </trkpt>
      <trkpt lat="47.82097" lon="6.85284">
        <ele>949.8</ele>
      </trkpt>
      <trkpt lat="47.82097" lon="6.85274">
        <ele>949.3</ele>
      </trkpt>
      <trkpt lat="47.82094" lon="6.85264">
        <ele>947</ele>
      </trkpt>
      <trkpt lat="47.82094" lon="6.85258">
        <ele>946.8</ele>
      </trkpt>
      <trkpt lat="47.82098" lon="6.85259">
        <ele>948.8</ele>
      </trkpt>
      <trkpt lat="47.82104" lon="6.85272">
        <ele>953.1</ele>
      </trkpt>
      <trkpt lat="47.82109" lon="6.85276">
        <ele>956.3</ele>
      </trkpt>
      <trkpt lat="47.8212" lon="6.85269">
        <ele>960.6</ele>
      </trkpt>
      <trkpt lat="47.82127" lon="6.85269">
        <ele>963.8</ele>
      </trkpt>
      <trkpt lat="47.82131" lon="6.85278">
        <ele>967.8</ele>
      </trkpt>
      <trkpt lat="47.8214" lon="6.85279">
        <ele>972.8</ele>
        <time>2021-11-04T13:57:05.572Z</time>
      </trkpt>
      <trkpt lat="47.82126" lon="6.85321">
        <ele>974.4</ele>
      </trkpt>
      <trkpt lat="47.82123" lon="6.85336">
        <ele>978.3</ele>
      </trkpt>
      <trkpt lat="47.82102" lon="6.85361">
        <ele>975.2</ele>
      </trkpt>
      <trkpt lat="47.82104" lon="6.85372">
        <ele>980.3</ele>
      </trkpt>
      <trkpt lat="47.82101" lon="6.85385">
        <ele>982.2</ele>
      </trkpt>
      <trkpt lat="47.82092" lon="6.8542">
        <ele>988.3</ele>
      </trkpt>
      <trkpt lat="47.82097" lon="6.85439">
        <ele>995.4</ele>
      </trkpt>
      <trkpt lat="47.82093" lon="6.85445">
        <ele>994.9</ele>
      </trkpt>
      <trkpt lat="47.82096" lon="6.85464">
        <ele>1000.8</ele>
      </trkpt>
      <trkpt lat="47.82098" lon="6.85474">
        <ele>1003.5</ele>
      </trkpt>
      <trkpt lat="47.82099" lon="6.85484">
        <ele>1005.8</ele>
        <time>2021-11-04T13:57:11.879Z</time>
      </trkpt>
      <trkpt lat="47.82097" lon="6.85488">
        <ele>1005.5</ele>
      </trkpt>
      <trkpt lat="47.82103" lon="6.85499">
        <ele>1009</ele>
      </trkpt>
      <trkpt lat="47.82112" lon="6.85505">
        <ele>1013.2</ele>
      </trkpt>
      <trkpt lat="47.82118" lon="6.85503">
        <ele>1015.7</ele>
      </trkpt>
      <trkpt lat="47.82127" lon="6.8551">
        <ele>1020.3</ele>
      </trkpt>
      <trkpt lat="47.82132" lon="6.85497">
        <ele>1021.7</ele>
      </trkpt>
      <trkpt lat="47.82136" lon="6.85504">
        <ele>1023.8</ele>
      </trkpt>
      <trkpt lat="47.82144" lon="6.85495">
        <ele>1027</ele>
      </trkpt>
      <trkpt lat="47.82156" lon="6.85499">
        <ele>1031.1</ele>
      </trkpt>
      <trkpt lat="47.82163" lon="6.85511">
        <ele>1034.2</ele>
      </trkpt>
      <trkpt lat="47.82168" lon="6.85522">
        <ele>1036.5</ele>
      </trkpt>
      <trkpt lat="47.82172" lon="6.85507">
        <ele>1037.9</ele>
      </trkpt>
      <trkpt lat="47.82176" lon="6.85496">
        <ele>1039.6</ele>
        <time>2021-11-04T13:57:18.209Z</time>
      </trkpt>
      <trkpt lat="47.82185" lon="6.85501">
        <ele>1043.5</ele>
      </trkpt>
      <trkpt lat="47.82192" lon="6.85541">
        <ele>1047.7</ele>
      </trkpt>
      <trkpt lat="47.82193" lon="6.85565">
        <ele>1050.8</ele>
      </trkpt>
      <trkpt lat="47.82191" lon="6.85582">
        <ele>1060.8081054688</ele>
        <time>2021-11-04T13:57:24.558Z</time>
      </trkpt>
      <trkpt lat="47.82191" lon="6.85582">
        <ele>1060.8186035156</ele>
        <time>2021-11-04T13:57:30.907Z</time>
      </trkpt>
      <trkpt lat="47.82187" lon="6.85613">
        <ele>1056.5</ele>
      </trkpt>
      <trkpt lat="47.82158" lon="6.85665">
        <ele>1066.1</ele>
      </trkpt>
      <trkpt lat="47.82137" lon="6.85707">
        <ele>1074</ele>
      </trkpt>
      <trkpt lat="47.8214" lon="6.85716">
        <ele>1077.5</ele>
      </trkpt>
      <trkpt lat="47.8215" lon="6.8572">
        <ele>1081.7</ele>
      </trkpt>
      <trkpt lat="47.82138" lon="6.85753">
        <ele>1085.3</ele>
      </trkpt>
      <trkpt lat="47.82135" lon="6.85783">
        <ele>1089.9</ele>
        <time>2021-11-04T13:57:37.307Z</time>
      </trkpt>
      <trkpt lat="47.82149" lon="6.85747">
        <ele>1087.6</ele>
      </trkpt>
      <trkpt lat="47.8217" lon="6.85724">
        <ele>1088</ele>
      </trkpt>
      <trkpt lat="47.82209" lon="6.85707">
        <ele>1086.9</ele>
      </trkpt>
      <trkpt lat="47.82228" lon="6.857">
        <ele>1086.7</ele>
      </trkpt>
      <trkpt lat="47.82245" lon="6.85685">
        <ele>1094.3837890625</ele>
        <time>2021-11-04T13:57:43.752Z</time>
      </trkpt>
      <trkpt lat="47.82257" lon="6.85667">
        <ele>1090</ele>
      </trkpt>
      <trkpt lat="47.82264" lon="6.85637">
        <ele>1090.4</ele>
      </trkpt>
      <trkpt lat="47.82282" lon="6.85587">
        <ele>1089.6</ele>
      </trkpt>
      <trkpt lat="47.82288" lon="6.8556">
        <ele>1087.9</ele>
      </trkpt>
      <trkpt lat="47.82289" lon="6.85521">
        <ele>1086.6</ele>
      </trkpt>
      <trkpt lat="47.82288" lon="6.85486">
        <ele>1083.1</ele>
      </trkpt>
      <trkpt lat="47.82292" lon="6.85465">
        <ele>1082.9</ele>
      </trkpt>
      <trkpt lat="47.823" lon="6.85448">
        <ele>1085.8</ele>
        <time>2021-11-04T13:57:50.252Z</time>
      </trkpt>
      <trkpt lat="47.82337" lon="6.85422">
        <ele>1089.2</ele>
      </trkpt>
      <trkpt lat="47.8235" lon="6.85412">
        <ele>1090.4</ele>
      </trkpt>
      <trkpt lat="47.82362" lon="6.85396">
        <ele>1090.7</ele>
      </trkpt>
      <trkpt lat="47.82386" lon="6.85385">
        <ele>1089.4</ele>
      </trkpt>
      <trkpt lat="47.82399" lon="6.85378">
        <ele>1089.4</ele>
      </trkpt>
      <trkpt lat="47.82409" lon="6.85365">
        <ele>1099.7864990234</ele>
        <time>2021-11-04T13:57:56.794Z</time>
      </trkpt>
      <trkpt lat="47.8241" lon="6.8535">
        <ele>1091.2</ele>
      </trkpt>
      <trkpt lat="47.82407" lon="6.8532">
        <ele>1092.2</ele>
      </trkpt>
      <trkpt lat="47.82421" lon="6.85306">
        <ele>1098.2</ele>
      </trkpt>
      <trkpt lat="47.82423" lon="6.85296">
        <ele>1102.1</ele>
      </trkpt>
      <trkpt lat="47.82416" lon="6.85272">
        <ele>1106.2</ele>
      </trkpt>
      <trkpt lat="47.8242" lon="6.85224">
        <ele>1108.7</ele>
      </trkpt>
      <trkpt lat="47.82423" lon="6.85179">
        <ele>1113.2</ele>
        <time>2021-11-04T13:58:03.378Z</time>
      </trkpt>
      <trkpt lat="47.82435" lon="6.85148">
        <ele>1115.7</ele>
      </trkpt>
      <trkpt lat="47.82454" lon="6.85129">
        <ele>1116.8</ele>
      </trkpt>
      <trkpt lat="47.82472" lon="6.85112">
        <ele>1118.9</ele>
      </trkpt>
      <trkpt lat="47.82473" lon="6.85062">
        <ele>1128.5</ele>
        <time>2021-11-04T13:58:09.995Z</time>
      </trkpt>
      <trkpt lat="47.82464" lon="6.85016">
        <ele>1134.4</ele>
      </trkpt>
      <trkpt lat="47.82418" lon="6.84939">
        <ele>1146.6</ele>
      </trkpt>
      <trkpt lat="47.82402" lon="6.849">
        <ele>1148.8</ele>
      </trkpt>
      <trkpt lat="47.82362" lon="6.84862">
        <ele>1150.9</ele>
      </trkpt>
      <trkpt lat="47.82347" lon="6.8483">
        <ele>1160.1</ele>
      </trkpt>
      <trkpt lat="47.8235" lon="6.84796">
        <ele>1170</ele>
        <time>2021-11-04T13:58:16.693Z</time>
      </trkpt>
      <trkpt lat="47.8232" lon="6.84791">
        <ele>1175.6</ele>
      </trkpt>
      <trkpt lat="47.82333" lon="6.84779">
        <ele>1178.8</ele>
      </trkpt>
      <trkpt lat="47.82336" lon="6.84769">
        <ele>1181</ele>
      </trkpt>
      <trkpt lat="47.82319" lon="6.84768">
        <ele>1184.6</ele>
        <time>2021-11-04T13:58:23.402Z</time>
      </trkpt>
      <trkpt lat="47.82312" lon="6.84756">
        <ele>1191.2</ele>
      </trkpt>
      <trkpt lat="47.8231" lon="6.84747">
        <ele>1195.5</ele>
      </trkpt>
      <trkpt lat="47.82294" lon="6.84746">
        <ele>1199.3</ele>
      </trkpt>
      <trkpt lat="47.82287" lon="6.84744">
        <ele>1201.8</ele>
      </trkpt>
      <trkpt lat="47.82288" lon="6.84741">
        <ele>1203.7</ele>
      </trkpt>
      <trkpt lat="47.82293" lon="6.84737">
        <ele>1204.5</ele>
      </trkpt>
      <trkpt lat="47.82296" lon="6.84732">
        <ele>1205.8</ele>
      </trkpt>
      <trkpt lat="47.82296" lon="6.84726">
        <ele>1208.7</ele>
      </trkpt>
      <trkpt lat="47.82291" lon="6.84718">
        <ele>1214.4</ele>
      </trkpt>
      <trkpt lat="47.82274" lon="6.84724">
        <ele>1216.5</ele>
      </trkpt>
      <trkpt lat="47.82263" lon="6.84717">
        <ele>1219.4</ele>
      </trkpt>
      <trkpt lat="47.82249" lon="6.84702">
        <ele>1227</ele>
      </trkpt>
      <trkpt lat="47.82238" lon="6.8468">
        <ele>1227.3452148438</ele>
        <time>2021-11-04T13:58:30.148Z</time>
      </trkpt>
      <trkpt lat="47.82219" lon="6.84616">
        <ele>1237.6</ele>
      </trkpt>
      <trkpt lat="47.82203" lon="6.8455">
        <ele>1236.2795410156</ele>
        <time>2021-11-04T13:58:36.926Z</time>
      </trkpt>
      <trkpt lat="47.82233" lon="6.84518">
        <ele>1244.7230224609</ele>
        <time>2021-11-04T13:58:43.716Z</time>
      </trkpt>
      <trkpt lat="47.82296" lon="6.84586">
        <ele>1245.8332519531</ele>
        <time>2021-11-04T13:58:50.532Z</time>
      </trkpt>
      <trkpt lat="47.82401" lon="6.84477">
        <ele>1237.6638183594</ele>
        <time>2021-11-04T13:58:57.391Z</time>
      </trkpt>
      <trkpt lat="47.82508" lon="6.8423">
        <ele>1240.8756103516</ele>
        <time>2021-11-04T13:59:04.316Z</time>
      </trkpt>
      <trkpt lat="47.82444" lon="6.83899">
        <ele>1229.7098388672</ele>
        <time>2021-11-04T13:59:11.318Z</time>
      </trkpt>
      <trkpt lat="47.82295" lon="6.83787">
        <ele>1207.8798828125</ele>
        <time>2021-11-04T13:59:18.376Z</time>
      </trkpt>
      <trkpt lat="47.82109" lon="6.83526">
        <ele>1176.6052246094</ele>
        <time>2021-11-04T13:59:25.519Z</time>
      </trkpt>
      <trkpt lat="47.81978" lon="6.83428">
        <ele>1169.9</ele>
      </trkpt>
      <trkpt lat="47.81926" lon="6.83435">
        <ele>1169</ele>
      </trkpt>
      <trkpt lat="47.8188" lon="6.83414">
        <ele>1165.5</ele>
      </trkpt>
      <trkpt lat="47.8186" lon="6.83401">
        <ele>1163.9</ele>
      </trkpt>
      <trkpt lat="47.81839" lon="6.83351">
        <ele>1164.5311279297</ele>
        <time>2021-11-04T13:59:32.761Z</time>
      </trkpt>
      <trkpt lat="47.81784" lon="6.83248">
        <ele>1156</ele>
      </trkpt>
      <trkpt lat="47.81769" lon="6.8319">
        <ele>1149.1</ele>
      </trkpt>
      <trkpt lat="47.81752" lon="6.83158">
        <ele>1145.8</ele>
      </trkpt>
      <trkpt lat="47.81718" lon="6.83139">
        <ele>1143.9381103516</ele>
        <time>2021-11-04T13:59:40.065Z</time>
      </trkpt>
      <trkpt lat="47.81728" lon="6.83074">
        <ele>1131.8</ele>
      </trkpt>
      <trkpt lat="47.81752" lon="6.83049">
        <ele>1126.8</ele>
      </trkpt>
      <trkpt lat="47.81755" lon="6.83024">
        <ele>1131.5478515625</ele>
        <time>2021-11-04T13:59:47.398Z</time>
      </trkpt>
      <trkpt lat="47.81742" lon="6.82996">
        <ele>1120.7</ele>
      </trkpt>
      <trkpt lat="47.81696" lon="6.82945">
        <ele>1115.8</ele>
      </trkpt>
      <trkpt lat="47.81673" lon="6.82908">
        <ele>1116.6</ele>
      </trkpt>
      <trkpt lat="47.81669" lon="6.82887">
        <ele>1114.7</ele>
      </trkpt>
      <trkpt lat="47.81658" lon="6.82863">
        <ele>1110.7</ele>
      </trkpt>
      <trkpt lat="47.81645" lon="6.82851">
        <ele>1108.1</ele>
      </trkpt>
      <trkpt lat="47.81599" lon="6.82719">
        <ele>1096</ele>
      </trkpt>
      <trkpt lat="47.81559" lon="6.82677">
        <ele>1096.1</ele>
      </trkpt>
      <trkpt lat="47.81544" lon="6.82648">
        <ele>1094.2</ele>
      </trkpt>
      <trkpt lat="47.81529" lon="6.82628">
        <ele>1092.3</ele>
        <time>2021-11-04T13:59:54.847Z</time>
      </trkpt>
      <trkpt lat="47.81511" lon="6.82585">
        <ele>1086.7</ele>
      </trkpt>
      <trkpt lat="47.81504" lon="6.82548">
        <ele>1083.8</ele>
      </trkpt>
      <trkpt lat="47.81496" lon="6.82512">
        <ele>1079.2</ele>
      </trkpt>
      <trkpt lat="47.81478" lon="6.82451">
        <ele>1079.2</ele>
      </trkpt>
      <trkpt lat="47.81467" lon="6.82412">
        <ele>1079.2</ele>
      </trkpt>
      <trkpt lat="47.81452" lon="6.82386">
        <ele>1090.1273193359</ele>
        <time>2021-11-04T14:00:02.356Z</time>
      </trkpt>
      <trkpt lat="47.81383" lon="6.82405">
        <ele>1082.6</ele>
      </trkpt>
      <trkpt lat="47.81315" lon="6.82393">
        <ele>1085.8</ele>
      </trkpt>
      <trkpt lat="47.81284" lon="6.82384">
        <ele>1086.8</ele>
      </trkpt>
      <trkpt lat="47.81235" lon="6.82424">
        <ele>1087.9</ele>
      </trkpt>
      <trkpt lat="47.81203" lon="6.82447">
        <ele>1085.5</ele>
      </trkpt>
      <trkpt lat="47.81188" lon="6.82444">
        <ele>1096.5931396484</ele>
        <time>2021-11-04T14:00:09.954Z</time>
      </trkpt>
      <trkpt lat="47.8111" lon="6.82408">
        <ele>1092.0129394531</ele>
        <time>2021-11-04T14:00:17.580Z</time>
      </trkpt>
      <trkpt lat="47.8108" lon="6.82288">
        <ele>1083.0904541016</ele>
        <time>2021-11-04T14:00:25.235Z</time>
      </trkpt>
      <trkpt lat="47.81024" lon="6.82212">
        <ele>1066.5</ele>
        <time>2021-11-04T14:00:32.915Z</time>
      </trkpt>
      <trkpt lat="47.80956" lon="6.82234">
        <ele>1064.7</ele>
      </trkpt>
      <trkpt lat="47.80905" lon="6.8219">
        <ele>1058.2</ele>
        <time>2021-11-04T14:00:40.640Z</time>
      </trkpt>
      <trkpt lat="47.80863" lon="6.82079">
        <ele>1042.2</ele>
        <time>2021-11-04T14:00:48.425Z</time>
      </trkpt>
      <trkpt lat="47.80791" lon="6.82053">
        <ele>1039.3</ele>
      </trkpt>
      <trkpt lat="47.80766" lon="6.82001">
        <ele>1038.3</ele>
      </trkpt>
      <trkpt lat="47.80768" lon="6.81855">
        <ele>1032.5</ele>
        <time>2021-11-04T14:00:56.263Z</time>
      </trkpt>
      <trkpt lat="47.80729" lon="6.81799">
        <ele>1029.9</ele>
      </trkpt>
      <trkpt lat="47.80701" lon="6.8176">
        <ele>1021.9</ele>
        <time>2021-11-04T14:01:04.151Z</time>
      </trkpt>
      <trkpt lat="47.80672" lon="6.81749">
        <ele>1016.8</ele>
      </trkpt>
      <trkpt lat="47.80632" lon="6.81815">
        <ele>1023.7623901367</ele>
        <time>2021-11-04T14:01:20.086Z</time>
      </trkpt>
      <trkpt lat="47.80632" lon="6.81815">
        <ele>1023.7723999023</ele>
        <time>2021-11-04T14:01:28.083Z</time>
      </trkpt>
      <trkpt lat="47.8051" lon="6.81824">
        <ele>1030.3</ele>
      </trkpt>
      <trkpt lat="47.80453" lon="6.81825">
        <ele>1028.4</ele>
      </trkpt>
      <trkpt lat="47.80397" lon="6.818">
        <ele>1029.3</ele>
        <time>2021-11-04T14:01:36.159Z</time>
      </trkpt>
      <trkpt lat="47.8038" lon="6.8177">
        <ele>1034.7</ele>
      </trkpt>
      <trkpt lat="47.80366" lon="6.81736">
        <ele>1035.6</ele>
      </trkpt>
      <trkpt lat="47.80354" lon="6.81735">
        <ele>1037.3</ele>
      </trkpt>
      <trkpt lat="47.80348" lon="6.81735">
        <ele>1038.2</ele>
      </trkpt>
      <trkpt lat="47.80343" lon="6.81739">
        <ele>1039.6</ele>
      </trkpt>
      <trkpt lat="47.80319" lon="6.81761">
        <ele>1044.6</ele>
      </trkpt>
      <trkpt lat="47.80302" lon="6.81745">
        <ele>1047.8</ele>
      </trkpt>
      <trkpt lat="47.80292" lon="6.81719">
        <ele>1049.9</ele>
      </trkpt>
      <trkpt lat="47.80265" lon="6.81659">
        <ele>1058.4</ele>
      </trkpt>
      <trkpt lat="47.80251" lon="6.81634">
        <ele>1062.2</ele>
      </trkpt>
      <trkpt lat="47.80229" lon="6.81613">
        <ele>1067.3</ele>
        <time>2021-11-04T14:01:44.352Z</time>
      </trkpt>
      <trkpt lat="47.80196" lon="6.8159">
        <ele>1072.3</ele>
        <time>2021-11-04T14:01:52.588Z</time>
      </trkpt>
      <trkpt lat="47.80172" lon="6.81572">
        <ele>1076</ele>
      </trkpt>
      <trkpt lat="47.80145" lon="6.81546">
        <ele>1078.8</ele>
        <time>2021-11-04T14:02:00.874Z</time>
      </trkpt>
      <trkpt lat="47.80133" lon="6.81533">
        <ele>1081.3</ele>
      </trkpt>
      <trkpt lat="47.80105" lon="6.8151">
        <ele>1087.1</ele>
        <time>2021-11-04T14:02:09.173Z</time>
      </trkpt>
      <trkpt lat="47.80003" lon="6.81423">
        <ele>1100.4</ele>
      </trkpt>
      <trkpt lat="47.79844" lon="6.8133">
        <ele>1107.4</ele>
      </trkpt>
      <trkpt lat="47.7982" lon="6.81296">
        <ele>1109</ele>
      </trkpt>
      <trkpt lat="47.79788" lon="6.81215">
        <ele>1113.5</ele>
      </trkpt>
      <trkpt lat="47.79712" lon="6.81147">
        <ele>1102.1</ele>
      </trkpt>
      <trkpt lat="47.79625" lon="6.81112">
        <ele>1096.0876464844</ele>
        <time>2021-11-04T14:02:17.655Z</time>
      </trkpt>
      <trkpt lat="47.7964" lon="6.81036">
        <ele>1082.3</ele>
        <time>2021-11-04T14:02:26.156Z</time>
      </trkpt>
      <trkpt lat="47.79642" lon="6.81001">
        <ele>1077.6</ele>
      </trkpt>
      <trkpt lat="47.79629" lon="6.80966">
        <ele>1071.3</ele>
      </trkpt>
      <trkpt lat="47.79619" lon="6.80951">
        <ele>1067.8</ele>
      </trkpt>
      <trkpt lat="47.796" lon="6.80961">
        <ele>1070.3</ele>
      </trkpt>
      <trkpt lat="47.79576" lon="6.80957">
        <ele>1071.8</ele>
      </trkpt>
      <trkpt lat="47.79522" lon="6.80935">
        <ele>1076.6</ele>
      </trkpt>
      <trkpt lat="47.79471" lon="6.80887">
        <ele>1079</ele>
      </trkpt>
      <trkpt lat="47.79442" lon="6.80862">
        <ele>1082.4</ele>
      </trkpt>
      <trkpt lat="47.79414" lon="6.80853">
        <ele>1095.3900146484</ele>
        <time>2021-11-04T14:02:34.741Z</time>
      </trkpt>
      <trkpt lat="47.79383" lon="6.80853">
        <ele>1083.2</ele>
      </trkpt>
      <trkpt lat="47.79354" lon="6.80786">
        <ele>1095.3</ele>
      </trkpt>
      <trkpt lat="47.79294" lon="6.80702">
        <ele>1113.5</ele>
      </trkpt>
      <trkpt lat="47.79227" lon="6.80663">
        <ele>1126.6</ele>
      </trkpt>
      <trkpt lat="47.79176" lon="6.8058">
        <ele>1128.6</ele>
      </trkpt>
      <trkpt lat="47.79104" lon="6.8036">
        <ele>1104.9</ele>
        <time>2021-11-04T14:02:43.491Z</time>
      </trkpt>
      <trkpt lat="47.78991" lon="6.80221">
        <ele>1085.8</ele>
      </trkpt>
      <trkpt lat="47.78889" lon="6.80047">
        <ele>1056.2</ele>
      </trkpt>
      <trkpt lat="47.7886" lon="6.79983">
        <ele>1041.5</ele>
      </trkpt>
      <trkpt lat="47.78812" lon="6.79946">
        <ele>1045.2</ele>
      </trkpt>
      <trkpt lat="47.7876" lon="6.79836">
        <ele>1043.8</ele>
      </trkpt>
      <trkpt lat="47.78697" lon="6.79765">
        <ele>1034.1</ele>
      </trkpt>
      <trkpt lat="47.786" lon="6.79697">
        <ele>1066.5830078125</ele>
        <time>2021-11-04T14:02:52.470Z</time>
      </trkpt>
      <trkpt lat="47.78565" lon="6.79707">
        <ele>1051.6</ele>
      </trkpt>
      <trkpt lat="47.78529" lon="6.79693">
        <ele>1055.6</ele>
      </trkpt>
      <trkpt lat="47.78453" lon="6.79666">
        <ele>1061.6</ele>
      </trkpt>
      <trkpt lat="47.78405" lon="6.79637">
        <ele>1060.6</ele>
      </trkpt>
      <trkpt lat="47.78335" lon="6.79648">
        <ele>1061.8083496094</ele>
        <time>2021-11-04T14:03:01.538Z</time>
      </trkpt>
      <trkpt lat="47.78173" lon="6.79733">
        <ele>1049.5502929688</ele>
        <time>2021-11-04T14:03:10.663Z</time>
      </trkpt>
      <trkpt lat="47.78121" lon="6.79721">
        <ele>1015.7</ele>
      </trkpt>
      <trkpt lat="47.78093" lon="6.79704">
        <ele>1006.3</ele>
      </trkpt>
      <trkpt lat="47.78072" lon="6.79661">
        <ele>1017.8011474609</ele>
        <time>2021-11-04T14:03:19.825Z</time>
      </trkpt>
      <trkpt lat="47.78061" lon="6.79538">
        <ele>989.7</ele>
      </trkpt>
      <trkpt lat="47.78072" lon="6.79456">
        <ele>982.6</ele>
      </trkpt>
      <trkpt lat="47.7809" lon="6.79402">
        <ele>975.4</ele>
      </trkpt>
      <trkpt lat="47.7812" lon="6.79356">
        <ele>969.6</ele>
      </trkpt>
      <trkpt lat="47.78087" lon="6.79218">
        <ele>935.7</ele>
        <time>2021-11-04T14:03:29.090Z</time>
      </trkpt>
      <trkpt lat="47.78054" lon="6.7918">
        <ele>921.3</ele>
      </trkpt>
      <trkpt lat="47.7804" lon="6.79161">
        <ele>919.5</ele>
      </trkpt>
      <trkpt lat="47.77983" lon="6.79134">
        <ele>918.6</ele>
      </trkpt>
      <trkpt lat="47.77949" lon="6.79074">
        <ele>921.5</ele>
      </trkpt>
      <trkpt lat="47.77918" lon="6.79018">
        <ele>921.2</ele>
      </trkpt>
      <trkpt lat="47.77892" lon="6.78972">
        <ele>924.1</ele>
      </trkpt>
      <trkpt lat="47.77803" lon="6.78919">
        <ele>949.03662109375</ele>
        <time>2021-11-04T14:03:38.472Z</time>
      </trkpt>
      <trkpt lat="47.77765" lon="6.78782">
        <ele>943.6</ele>
      </trkpt>
      <trkpt lat="47.77742" lon="6.78616">
        <ele>956.2</ele>
        <time>2021-11-04T14:03:47.961Z</time>
      </trkpt>
      <trkpt lat="47.7772" lon="6.78555">
        <ele>961.5</ele>
      </trkpt>
      <trkpt lat="47.77687" lon="6.78501">
        <ele>970.8</ele>
      </trkpt>
      <trkpt lat="47.77689" lon="6.78322">
        <ele>989.6</ele>
      </trkpt>
      <trkpt lat="47.77672" lon="6.78188">
        <ele>996.7</ele>
        <time>2021-11-04T14:03:57.533Z</time>
      </trkpt>
      <trkpt lat="47.77668" lon="6.78133">
        <ele>1000.1</ele>
      </trkpt>
      <trkpt lat="47.77616" lon="6.78113">
        <ele>998.6</ele>
      </trkpt>
      <trkpt lat="47.77568" lon="6.78043">
        <ele>1000.5</ele>
      </trkpt>
      <trkpt lat="47.77538" lon="6.77903">
        <ele>997.13635253906</ele>
        <time>2021-11-04T14:04:07.171Z</time>
      </trkpt>
    </trkseg>
  </trk>
</gpx>